Temperature
9 9 9 10 10 10 10 10 10 10 10 10 10 10 9 9 9 9 9 9 9 8 8 8 7 6 5 5 4 4 3 2 2 1 1 0 0 -0 -0 -1 -1 -1 -1
8 8 8 8 9 9 9 9 9 9 9 9 9 8 8 8 8 8 8 8 8 7 7 6 5 5 4 3 3 2 2 1 1 0 -0 -1 -1 -1 -1 -1 -2 -2 -2
6 6 7 7 7 7 7 8 8 8 8 8 7 7 7 7 7 7 7 7 6 6 5 4 4 3 2 2 2 1 1 0 -0 -1 -1 -2 -1 -2 -2 -3 -3 -3 -3
6 6 6 6 6 6 6 6 6 7 6 6 7 6 6 6 6 6 6 5 4 4 3 3 2 2 1 1 1 0 -0 -1 -2 -2 -3 -3 -3 -3 -4 -5 -5 -5 -4
5 5 5 4 4 5 5 5 5 5 5 5 5 5 5 4 4 4 3 3 3 2 2 1 1 1 0 -0 -0 -1 -2 -2 -3 -4 -4 -4 -5 -5 -6 -6 -6 -6 -5
4 4 3 3 3 3 3 3 3 3 3 3 3 2 2 2 1 1 1 1 1 1 1 0 -0 -0 -1 -1 -1 -2 -2 -3 -4 -5 -5 -6 -6 -6 -7 -7 -7 -7 -7
3 3 2 2 2 2 2 2 2 1 1 1 1 0 0 0 -0 0 -0 -0 -0 -0 -1 -1 -1 -1 -2 -2 -2 -2 -3 -4 -5 -5 -6 -6 -6 -7 -7 -7 -7 -8 -7
2 2 1 1 1 1 1 0 0 0 0 -0 -0 -1 -1 -1 -1 -1 -1 -1 -1 -1 -2 -2 -2 -2 -2 -3 -3 -4 -4 -5 -5 -6 -6 -6 -6 -7 -7 -7 -8 -7 -7
1 1 0 0 0 0 -0 -0 -0 -0 -1 -1 -1 -1 -1 -2 -2 -2 -2 -2 -2 -2 -2 -2 -3 -3 -4 -4 -5 -5 -5 -6 -6 -6 -6 -6 -6 -6 -7 -7 -7 -7 -7
0 -0 -0 -0 -0 -0 -0 -1 -1 -1 -1 -1 -1 -1 -2 -2 -2 -2 -2 -2 -3 -3 -3 -3 -4 -4 -5 -5 -6 -6 -6 -6 -6 -6 -6 -6 -6 -6 -6 -7 -7 -7 -8
-0 -0 -0 -1 -0 -0 -1 -1 -1 -1 -1 -1 -1 -2 -2 -2 -3 -3 -3 -3 -4 -4 -4 -5 -5 -5 -6 -6 -7 -7 -7 -6 -6 -6 -6 -6 -6 -6 -6 -7 -7 -7 -7
-0 -0 -1 -1 -1 -1 -1 -1 -1 -1 -1 -2 -2 -2 -3 -3 -3 -4 -4 -4 -4 -5 -5 -6 -6 -6 -6 -6 -6 -6 -6 -6 -6 -6 -6 -6 -6 -6 -6 -6 -7 -7 -7
-0 -0 -0 -0 -1 -1 -1 -1 -1 -1 -2 -2 -2 -3 -3 -4 -4 -4 -5 -5 -5 -6 -6 -6 -6 -6 -6 -6 -6 -6 -6 -7 -7 -7 -6 -6 -6 -6 -6 -6 -6 -6 -6
-0 -0 -0 -1 -1 -1 -1 -1 -2 -2 -2 -3 -3 -3 -4 -4 -5 -5 -6 -6 -6 -6 -6 -7 -7 -7 -7 -7 -7 -7 -7 -7 -7 -7 -7 -7 -7 -6 -6 -7 -7 -6 -6
-0 -0 -0 -1 -1 -1 -1 -2 -2 -2 -2 -3 -3 -4 -4 -5 -5 -6 -6 -7 -7 -7 -7 -7 -7 -7 -7 -7 -7 -7 -7 -7 -7 -7 -7 -7 -7 -7 -7 -7 -7 -7 -7
-0 -0 -1 -1 -1 -1 -2 -2 -2 -3 -3 -3 -4 -4 -5 -5 -6 -6 -7 -7 -7 -7 -7 -7 -7 -7 -7 -7 -7 -7 -7 -7 -7 -7 -7 -7 -7 -7 -7 -7 -7 -8 -8
-0 -0 -1 -1 -1 -2 -2 -2 -3 -3 -3 -4 -4 -5 -5 -6 -6 -6 -7 -7 -7 -7 -7 -8 -8 -7 -7 -7 -7 -7 -7 -7 -8 -8 -8 -8 -8 -8 -8 -8 -8 -8 -8
-0 -1 -1 -1 -1 -2 -2 -3 -3 -4 -4 -4 -5 -5 -6 -6 -6 -7 -7 -7 -7 -8 -8 -8 -8 -8 -8 -8 -8 -8 -8 -8 -8 -8 -8 -8 -8 -8 -8 -8 -8 -8 -8
-0 -1 -1 -1 -2 -2 -2 -3 -3 -4 -4 -5 -5 -6 -6 -6 -7 -7 -7 -7 -8 -8 -8 -8 -8 -8 -8 -8 -8 -8 -8 -8 -8 -8 -8 -8 -8 -8 -8 -8 -8 -8 -8
-1 -1 -1 -2 -2 -2 -3 -3 -4 -4 -4 -5 -5 -6 -6 -7 -7 -7 -8 -8 -8 -8 -8 -8 -8 -8 -8 -8 -8 -8 -8 -8 -8 -8 -8 -8 -8 -8 -8 -8 -8 -8 -8
-1 -1 -1 -2 -2 -3 -3 -3 -4 -4 -5 -5 -6 -6 -7 -7 -7 -7 -8 -8 -8 -8 -8 -8 -8 -8 -8 -8 -8 -8 -8 -8 -8 -8 -8 -8 -8 -8 -8 -8 -8 -8 -8
-1 -1 -2 -2 -2 -3 -3 -4 -4 -4 -5 -5 -6 -6 -7 -7 -7 -8 -8 -8 -8 -8 -8 -8 -8 -8 -8 -8 -8 -8 -8 -8 -8 -8 -8 -8 -8 -8 -8 -8 -8 -8 -8
-1 -1 -2 -2 -3 -3 -3 -4 -4 -5 -5 -6 -6 -7 -7 -7 -8 -8 -8 -8 -8 -8 -8 -8 -8 -8 -8 -8 -8 -8 -8 -8 -9 -9 -8 -8 -8 -8 -8 -8 -8 -8 -8
-1 -2 -2 -2 -3 -3 -4 -4 -4 -5 -5 -6 -6 -7 -7 -7 -8 -8 -8 -8 -8 -8 -8 -8 -8 -8 -8 -8 -8 -8 -8 -9 -9 -8 -8 -8 -8 -8 -8 -8 -8 -8 -8
-2 -2 -2 -3 -3 -3 -4 -4 -5 -5 -6 -6 -7 -7 -7 -8 -8 -8 -8 -8 -8 -8 -8 -8 -8 -8 -8 -8 -8 -8 -8 -9 -9 -9 -8 -8 -8 -8 -8 -8 -8 -8 -8
-2 -2 -2 -3 -3 -4 -4 -4 -5 -5 -6 -6 -7 -7 -7 -8 -8 -8 -8 -8 -8 -8 -8 -8 -8 -8 -8 -8 -8 -8 -8 -8 -8 -8 -8 -8 -8 -8 -8 -8 -8 -8 -8
Wind_Speed
9 8 8 7 7 6 5 5 5 4 3 4 4 5 6 7 8 9 9 10 11 10 9 10 9 8 7 6 5 4 3 2 2 1 2 3 4 7 9 10 12 13 14
9 8 7 7 7 6 5 4 2 1 1 2 4 6 7 7 8 10 11 11 11 11 11 11 10 8 8 6 5 4 3 2 2 3 3 4 7 8 9 10 11 12 14
8 8 8 8 8 7 6 6 5 5 6 6 7 7 8 8 9 10 11 11 11 11 11 11 10 9 8 5 5 4 2 2 2 3 4 5 6 7 8 9 11 11 13
8 8 9 9 9 8 8 8 8 9 9 9 9 10 10 10 10 11 12 12 12 11 10 9 8 7 6 6 4 3 2 3 4 4 6 6 7 7 7 8 9 9 10
8 9 9 9 9 10 10 11 11 11 12 11 12 12 11 10 10 12 11 12 12 11 9 8 7 7 6 4 3 3 3 3 4 5 6 6 7 6 7 7 9 10 11
9 9 9 9 10 11 11 12 12 12 12 12 12 12 12 10 15 16 12 11 10 9 8 7 6 5 5 3 2 3 5 6 6 6 6 7 9 8 8 8 9 10 10
9 9 9 9 10 10 11 11 12 12 12 13 12 12 13 14 17 17 15 10 9 7 6 5 4 3 2 1 2 4 6 7 8 8 9 9 10 9 9 10 10 12 13
9 9 9 9 10 10 11 11 11 10 11 11 11 11 12 13 17 16 14 9 7 6 5 4 3 1 0 3 4 4 5 6 7 8 9 10 9 10 10 11 12 13 14
8 8 8 8 9 10 10 10 9 10 10 10 10 11 11 11 12 11 9 6 5 5 4 2 1 1 2 5 5 6 7 7 7 10 12 14 15 16 14 10 10 10 11
7 7 8 8 9 9 9 9 9 9 9 9 9 8 8 8 9 8 6 3 3 2 1 1 1 3 5 6 6 6 8 8 7 8 9 10 11 11 11 9 8 8 8
7 8 8 8 9 9 9 8 8 8 9 9 8 7 7 7 7 7 5 3 2 1 1 2 2 5 7 7 7 6 8 9 9 8 8 8 7 6 6 7 7 7 9
8 8 8 8 7 7 8 8 7 8 8 7 7 6 6 6 6 6 5 4 3 2 2 3 3 6 8 8 7 7 10 9 6 6 7 7 6 6 6 8 10 12 13
8 8 8 8 7 7 7 7 6 5 5 5 4 4 3 3 3 5 5 5 5 3 3 5 6 7 8 6 6 8 7 5 5 6 7 7 7 8 8 9 10 11 14
8 7 7 7 7 6 5 4 4 4 4 3 3 2 2 1 2 2 2 3 3 4 4 4 6 5 5 5 5 4 4 4 5 6 7 8 8 8 8 8 9 9 10
8 7 6 6 6 6 5 5 4 4 3 2 2 1 1 1 3 5 5 4 5 5 5 4 4 4 4 4 4 4 4 4 5 6 7 8 8 8 9 8 8 9 9
8 7 5 5 5 5 5 5 7 6 6 5 3 1 1 2 4 5 5 6 6 6 5 4 4 4 5 5 5 5 5 5 5 6 7 8 8 9 10 9 9 10 11
8 7 5 5 5 4 4 4 4 4 5 4 4 3 2 3 4 5 6 6 5 5 4 4 4 5 5 5 5 6 6 6 6 7 8 8 9 9 10 10 10 10 11
7 7 6 5 4 4 3 3 2 2 1 0 2 3 4 4 5 5 6 5 3 3 4 4 5 5 5 6 6 7 7 7 7 7 8 9 9 9 10 11 11 12 12
7 6 5 5 4 4 3 3 2 1 1 1 1 1 3 4 4 4 4 4 4 5 5 5 5 6 6 6 7 7 8 8 9 8 9 9 9 9 10 11 12 15 14
6 8 7 5 5 4 3 3 2 2 2 2 2 2 3 4 4 4 4 4 5 5 5 6 6 6 7 7 7 8 8 9 9 9 9 9 9 10 11 13 12 13 13
7 8 9 6 4 4 4 3 3 2 2 2 3 3 5 5 5 5 5 5 5 6 6 6 7 7 7 7 7 8 10 9 9 9 9 10 10 11 11 12 13 13 13
7 7 6 5 5 4 4 3 3 3 3 3 3 4 6 5 5 5 5 6 6 6 6 7 7 7 7 7 8 9 9 10 10 10 10 10 11 11 12 12 13 13 13
7 7 6 5 5 5 5 3 3 3 3 4 4 4 4 4 5 5 6 6 6 6 7 7 8 8 9 9 10 9 10 11 11 11 11 12 12 12 12 13 15 16 15
8 8 7 6 5 5 4 4 3 3 4 4 4 4 5 5 6 7 7 7 7 7 8 8 9 11 14 13 13 13 14 16 16 14 15 14 14 14 13 14 15 16 16
7 7 7 6 6 5 4 4 4 4 4 4 4 5 5 6 6 7 7 7 8 8 10 11 11 12 14 16 16 17 19 23 23 19 16 13 15 15 15 16 15 16 16
7 7 6 5 5 5 4 4 4 4 4 4 5 5 5 6 6 7 7 7 7 8 9 10 12 14 17 17 19 20 22 24 25 25 19 13 14 14 15 15 18 16 17
Wind_Direction
345 340 336 334 330 320 303 289 276 265 247 223 197 175 166 160 155 150 147 147 142 137 137 134 127 125 118 109 103 105 106 121 177 215 218 232 250 263 270 273 278 280 280
352 353 356 355 356 358 360 358 360 30 101 129 134 135 134 138 142 142 141 141 139 137 134 129 126 123 116 115 116 121 131 150 194 235 238 239 251 265 275 280 280 280 280
5 11 15 16 18 22 26 33 47 66 79 89 101 108 113 118 122 125 127 127 125 125 126 125 126 128 126 125 127 136 152 177 212 241 258 256 261 267 278 279 280 280 281
24 31 31 29 32 38 44 49 58 69 77 82 88 92 97 102 106 110 112 112 110 109 110 113 117 123 126 130 137 154 174 202 226 244 257 265 269 273 276 283 289 290 290
42 46 44 43 48 55 59 61 64 68 74 79 84 86 88 91 98 103 104 106 105 103 98 98 103 114 129 141 156 177 200 230 244 252 263 270 273 279 283 291 293 299 297
55 54 53 56 58 61 65 69 71 72 75 78 80 83 85 90 100 100 101 98 100 103 103 102 109 116 129 142 198 240 245 252 257 262 270 274 281 285 290 293 297 299 301
64 62 61 65 66 67 71 73 75 76 78 79 78 81 85 91 94 93 93 94 98 102 107 113 116 121 130 213 253 257 255 261 267 273 275 276 283 290 294 293 290 290 288
71 69 69 73 75 75 76 75 75 76 78 79 79 81 84 88 92 94 96 92 93 97 102 107 113 130 257 278 271 270 270 267 268 269 273 279 282 286 284 282 286 287 285
74 75 77 83 85 83 81 78 77 79 77 77 79 83 86 90 93 98 98 99 101 99 96 87 23 301 294 284 282 283 286 283 273 272 277 280 283 285 287 286 283 284 288
80 83 84 87 89 88 87 85 83 84 85 85 81 81 88 97 99 97 92 91 95 94 93 58 351 318 308 302 294 287 287 295 298 291 284 282 282 282 277 267 268 272 279
92 90 87 89 91 94 93 92 94 94 92 89 87 83 82 86 92 86 76 60 54 31 351 337 339 323 313 310 302 290 292 299 297 295 295 293 290 284 278 270 263 257 264
100 95 91 91 94 98 100 99 100 103 101 98 96 89 78 72 68 65 55 44 23 351 333 327 324 321 316 313 304 300 301 301 294 293 293 295 298 298 296 291 281 269 260
107 101 99 97 96 102 106 108 105 102 101 101 100 97 87 69 58 45 32 21 6 339 327 328 324 322 316 304 298 304 303 291 289 291 292 295 297 296 296 292 286 278 272
118 112 110 107 102 98 95 97 100 100 103 106 105 103 97 69 30 6 356 347 336 324 315 312 310 306 295 295 301 296 289 291 296 292 295 297 297 294 291 292 295 300 296
127 122 118 113 113 104 92 81 85 78 77 97 102 103 65 19 2 350 342 335 333 330 318 305 310 317 318 318 312 306 299 293 291 293 294 296 296 296 295 294 290 291 287
139 138 135 131 124 120 117 104 80 82 86 82 75 50 2 340 339 338 334 332 329 329 311 306 314 317 317 317 315 312 308 301 298 295 291 289 291 293 294 294 289 286 286
152 149 145 144 141 140 139 138 133 107 87 71 51 31 4 347 338 332 330 327 324 322 303 305 306 306 304 301 300 300 298 297 294 288 285 286 287 288 289 291 291 290 289
152 151 152 152 152 154 156 158 166 181 201 175 24 2 353 344 335 332 333 319 302 303 301 298 298 298 296 295 295 295 295 295 290 286 285 284 284 285 287 288 289 290 292
157 157 156 154 155 157 158 162 169 188 225 260 282 298 334 325 316 324 327 310 306 303 299 294 292 292 291 291 290 289 289 288 287 287 284 283 283 283 284 286 289 290 292
163 161 158 157 159 161 166 174 188 209 234 257 276 296 308 305 304 308 305 297 292 292 292 291 289 287 287 286 286 286 287 286 286 283 283 283 283 282 283 287 288 290 291
160 163 165 164 169 173 179 190 203 222 242 261 272 285 298 296 295 298 297 293 290 290 290 290 288 287 283 281 281 282 283 283 283 283 283 283 284 284 284 285 287 287 288
163 164 171 175 175 180 189 198 210 228 246 263 276 282 291 284 283 287 289 289 289 285 284 284 283 282 280 279 280 281 281 281 282 283 283 284 284 284 285 286 286 287 288
166 166 170 175 180 186 193 204 217 233 249 263 273 280 283 282 284 285 287 290 290 287 285 280 279 280 280 277 274 272 273 276 279 282 284 285 285 285 286 285 287 290 290
172 173 174 178 185 194 203 213 224 238 251 262 270 275 279 283 284 285 287 288 289 287 284 280 277 279 282 284 281 276 272 273 277 277 277 277 282 284 285 286 289 290 291
175 176 179 184 191 199 207 217 229 240 250 259 268 273 278 281 283 286 287 286 287 285 286 287 282 282 283 284 283 282 281 285 287 285 282 281 282 284 287 288 290 292 292
178 178 182 187 194 201 209 220 231 241 251 259 266 271 276 280 282 285 287 286 288 289 289 288 285 286 289 289 287 288 290 293 295 296 294 290 289 289 292 292 293 293 293
Height
1459 1458 1456 1455 1454 1453 1452 1451 1451 1451 1451 1451 1452 1453 1454 1455 1457 1459 1461 1463 1464 1466 1468 1470 1472 1474 1476 1478 1480 1482 1484 1486 1487 1487 1488 1488 1488 1487 1485 1483 1481 1479 1477
1456 1454 1452 1451 1449 1448 1448 1447 1446 1446 1446 1447 1447 1448 1449 1451 1452 1454 1456 1457 1459 1461 1463 1465 1467 1470 1472 1474 1476 1479 1480 1481 1482 1482 1483 1483 1482 1481 1479 1477 1475 1472 1470
1454 1452 1450 1448 1447 1446 1445 1444 1444 1443 1443 1443 1444 1445 1446 1447 1449 1450 1452 1453 1455 1458 1460 1462 1465 1467 1469 1472 1473 1475 1476 1477 1477 1478 1478 1478 1476 1474 1472 1471 1468 1465 1463
1452 1450 1448 1447 1445 1444 1443 1442 1442 1441 1441 1441 1442 1442 1443 1445 1446 1447 1449 1451 1453 1456 1459 1461 1464 1466 1468 1469 1471 1472 1473 1473 1474 1473 1473 1472 1471 1469 1467 1465 1462 1460 1457
1451 1449 1447 1446 1445 1443 1442 1442 1441 1441 1441 1441 1441 1441 1443 1444 1445 1447 1449 1451 1453 1456 1458 1460 1463 1465 1466 1467 1468 1469 1469 1470 1470 1469 1468 1467 1466 1464 1463 1460 1457 1453 1450
1450 1449 1447 1446 1445 1444 1443 1443 1442 1442 1441 1442 1442 1443 1444 1445 1447 1449 1451 1452 1455 1457 1458 1460 1462 1463 1464 1465 1465 1466 1466 1466 1465 1465 1463 1462 1461 1460 1457 1455 1452 1449 1445
1450 1449 1448 1447 1446 1445 1445 1445 1444 1444 1444 1444 1445 1446 1447 1449 1450 1452 1454 1455 1456 1458 1459 1460 1461 1462 1462 1462 1462 1462 1462 1461 1461 1460 1459 1457 1456 1454 1452 1449 1447 1444 1441
1451 1450 1450 1449 1448 1448 1447 1447 1447 1447 1448 1448 1449 1450 1451 1452 1453 1454 1455 1456 1457 1458 1459 1460 1460 1460 1460 1460 1459 1459 1458 1458 1456 1455 1454 1452 1451 1449 1447 1445 1442 1439 1435
1452 1452 1452 1451 1451 1451 1451 1451 1452 1452 1452 1453 1454 1454 1455 1456 1456 1457 1458 1458 1459 1459 1459 1459 1459 1458 1457 1457 1456 1455 1455 1454 1452 1450 1449 1447 1445 1444 1442 1440 1437 1434 1430
1454 1454 1454 1454 1454 1454 1455 1455 1456 1456 1456 1457 1457 1458 1458 1458 1459 1459 1459 1459 1459 1458 1458 1457 1456 1456 1455 1454 1453 1452 1451 1450 1449 1447 1445 1443 1441 1439 1437 1435 1433 1429 1425
1457 1457 1457 1458 1458 1458 1458 1459 1459 1459 1460 1460 1460 1460 1460 1460 1460 1460 1459 1459 1458 1458 1457 1456 1454 1453 1452 1451 1450 1449 1448 1446 1445 1443 1441 1439 1437 1435 1433 1431 1428 1425 1421
1459 1459 1460 1460 1461 1461 1461 1462 1462 1462 1462 1462 1462 1462 1462 1461 1461 1460 1459 1458 1457 1456 1455 1454 1452 1451 1449 1448 1447 1446 1444 1443 1441 1439 1438 1436 1434 1431 1429 1426 1423 1419 1416
1461 1462 1463 1463 1463 1464 1464 1464 1464 1464 1464 1464 1463 1463 1462 1462 1461 1460 1458 1457 1456 1454 1453 1451 1450 1448 1447 1446 1444 1443 1441 1440 1438 1436 1434 1432 1429 1427 1424 1421 1417 1414 1409
1463 1464 1465 1465 1465 1466 1466 1466 1466 1465 1465 1464 1464 1463 1462 1461 1460 1459 1457 1455 1454 1452 1451 1449 1447 1446 1444 1443 1442 1440 1438 1437 1435 1433 1430 1428 1425 1422 1419 1416 1412 1407 1403
1465 1465 1466 1466 1467 1467 1467 1467 1466 1466 1465 1465 1464 1463 1461 1460 1459 1457 1456 1454 1452 1451 1449 1447 1446 1444 1443 1441 1439 1438 1436 1434 1432 1429 1427 1424 1421 1418 1414 1411 1407 1402 1397
1465 1466 1466 1467 1467 1467 1467 1467 1466 1466 1464 1463 1462 1461 1460 1459 1457 1455 1453 1452 1450 1448 1447 1445 1444 1442 1440 1439 1437 1435 1433 1431 1428 1426 1423 1420 1416 1413 1409 1406 1402 1398 1393
1465 1466 1466 1467 1467 1467 1467 1466 1465 1465 1463 1462 1461 1459 1458 1456 1455 1453 1451 1449 1448 1446 1445 1443 1441 1440 1438 1436 1434 1432 1429 1427 1424 1422 1419 1415 1412 1408 1404 1400 1397 1392 1387
1465 1465 1466 1466 1466 1466 1466 1465 1464 1463 1462 1461 1459 1457 1456 1454 1452 1451 1449 1447 1445 1444 1442 1440 1438 1437 1435 1433 1430 1428 1425 1423 1420 1417 1414 1411 1407 1403 1399 1395 1391 1387 1382
1463 1464 1465 1465 1465 1465 1465 1464 1463 1462 1460 1459 1457 1456 1454 1452 1450 1448 1446 1445 1443 1441 1439 1437 1435 1433 1431 1429 1427 1424 1421 1418 1416 1412 1409 1406 1402 1398 1394 1390 1386 1381 1376
1462 1463 1463 1464 1464 1463 1463 1462 1461 1460 1458 1457 1455 1453 1452 1450 1448 1446 1444 1442 1440 1438 1436 1434 1432 1430 1427 1425 1422 1420 1417 1414 1411 1407 1404 1400 1397 1393 1389 1384 1380 1375 1370
1459 1460 1461 1461 1461 1461 1461 1460 1459 1457 1456 1454 1453 1451 1449 1447 1445 1443 1441 1439 1437 1434 1432 1430 1428 1426 1423 1421 1418 1415 1412 1409 1406 1402 1399 1395 1391 1387 1383 1379 1374 1369 1364
1457 1458 1458 1459 1459 1459 1458 1457 1456 1455 1453 1452 1450 1448 1446 1444 1442 1440 1437 1435 1433 1431 1429 1426 1424 1422 1419 1416 1413 1410 1407 1404 1401 1397 1393 1389 1386 1381 1377 1372 1368 1363 1358
1454 1455 1456 1456 1456 1456 1455 1454 1453 1452 1450 1448 1447 1445 1443 1441 1438 1436 1434 1432 1430 1427 1425 1422 1420 1418 1415 1412 1409 1406 1402 1399 1396 1392 1388 1384 1380 1375 1371 1366 1362 1357 1352
1451 1452 1452 1453 1453 1453 1452 1451 1450 1449 1447 1445 1443 1441 1439 1437 1435 1433 1430 1428 1426 1424 1421 1418 1416 1413 1410 1407 1404 1401 1398 1394 1390 1386 1383 1378 1374 1369 1365 1360 1356 1351 1346
1447 1448 1449 1449 1449 1449 1449 1448 1446 1445 1443 1442 1440 1438 1436 1433 1431 1429 1427 1424 1422 1420 1417 1414 1411 1408 1405 1402 1399 1396 1392 1389 1385 1381 1377 1373 1368 1364 1359 1354 1349 1344 1339
1444 1445 1445 1446 1446 1446 1445 1444 1443 1441 1440 1438 1436 1434 1432 1430 1428 1425 1423 1421 1418 1416 1413 1410 1407 1404 1401 1397 1394 1390 1387 1383 1380 1376 1372 1367 1363 1358 1353 1348 1343 1338 1332